Back to Top

Language: 

My Weather Underground Personal Weather Station Historical Data with Graphs...

Delerius Weather Station Historical Data
Daily Summary for October 17, 2017 Units:  Metric    English   Both
« Previous Day
Next Day »
Daily Weekly Monthly Yearly Custom
  High: Low: Average:
Temperature: 15.6 °C 9.3 °C 12.7 °C
Dew Point: 8.2 °C 5.7 °C 7.2 °C
Humidity: 84 % 55 % 70 %
Wind Speed: 38.6 km/h 0 km/h 17.5 km/h
Wind Gust: 82.1 km/h - -
Wind:- - WSW
Pressure: 1015.8 hPa 1008 hPa -
Precipitation: 0 mm    
Historical Graphs
 
 
Tabular Data for October 17, 2017
Time Temperature Dew Point Pressure Wind Wind Speed Wind Gust Humidity Rainfall Rate (Hourly) solar Conditions
00:03 14.2 °C 7.5 °C 1008 hPa SW 32.2 km/h 69.2 km/h 64 % 0 mm 0 W/m2
00:08 14.2 °C 7.5 °C 1008 hPa WSW 38.6 km/h 69.2 km/h 64 % 0 mm 0 W/m2
00:13 14.2 °C 7.5 °C 1008 hPa SW 37 km/h 69.2 km/h 64 % 0 mm 0 W/m2
00:18 14.2 °C 7.5 °C 1008 hPa SW 38.6 km/h 69.2 km/h 64 % 0 mm 0 W/m2
00:23 14.2 °C 7.5 °C 1008 hPa SW 38.6 km/h 69.2 km/h 64 % 0 mm 0 W/m2
00:28 14.1 °C 7.4 °C 1008.4 hPa SW 38.6 km/h 82.1 km/h 64 % 0 mm 0 W/m2
00:38 14 °C 7.5 °C 1008.4 hPa SW 32.2 km/h 54.7 km/h 65 % 0 mm 0 W/m2
00:43 14 °C 7.5 °C 1008.4 hPa SW 35.4 km/h 62.8 km/h 65 % 0 mm 0 W/m2
00:48 13.9 °C 7.7 °C 1008.4 hPa SW 32.2 km/h 62.8 km/h 66 % 0 mm 0 W/m2
00:53 13.9 °C 7.7 °C 1008.7 hPa SW 30.6 km/h 53.1 km/h 66 % 0 mm 0 W/m2
00:58 13.9 °C 7.7 °C 1008.7 hPa SW 29 km/h 53.1 km/h 66 % 0 mm 0 W/m2
00:59 13.9 °C 7.7 °C 1008.4 hPa SW 29 km/h 53.1 km/h 66 % 0 mm 0 W/m2
01:04 13.9 °C 7.7 °C 1009 hPa SW 29 km/h 59.5 km/h 66 % 0 mm 0 W/m2
01:09 13.9 °C 7.7 °C 1009 hPa SW 29 km/h 69.2 km/h 66 % 0 mm 0 W/m2
01:14 13.8 °C 7.6 °C 1009 hPa SW 29 km/h 69.2 km/h 66 % 0 mm 0 W/m2
01:19 13.8 °C 7.6 °C 1008.7 hPa SW 29 km/h 53.1 km/h 66 % 0 mm 0 W/m2
01:24 13.8 °C 7.6 °C 1008.7 hPa WSW 30.6 km/h 56.3 km/h 66 % 0 mm 0 W/m2
01:29 13.7 °C 7.4 °C 1008.7 hPa WSW 33.8 km/h 56.3 km/h 66 % 0 mm 0 W/m2
01:34 13.7 °C 7.7 °C 1009 hPa WSW 30.6 km/h 48.3 km/h 67 % 0 mm 0 W/m2
01:39 13.7 °C 7.7 °C 1009 hPa SW 30.6 km/h 70.8 km/h 67 % 0 mm 0 W/m2
01:44 13.6 °C 7.6 °C 1009.4 hPa SW 29 km/h 70.8 km/h 67 % 0 mm 0 W/m2
01:49 13.6 °C 7.8 °C 1009.4 hPa WSW 27.4 km/h 54.7 km/h 68 % 0 mm 0 W/m2
01:54 13.6 °C 7.8 °C 1009.4 hPa WSW 27.4 km/h 49.9 km/h 68 % 0 mm 0 W/m2
01:59 13.5 °C 7.7 °C 1009.4 hPa WSW 25.7 km/h 49.9 km/h 68 % 0 mm 0 W/m2
02:05 13.5 °C 7.7 °C 1009.4 hPa WSW 27.4 km/h 57.9 km/h 68 % 0 mm 0 W/m2
02:10 13.5 °C 7.7 °C 1009.4 hPa WSW 27.4 km/h 57.9 km/h 68 % 0 mm 0 W/m2
02:15 13.5 °C 7.7 °C 1009.7 hPa WSW 22.5 km/h 38.6 km/h 68 % 0 mm 0 W/m2
02:20 13.4 °C 7.4 °C 1009.7 hPa SW 19.3 km/h 41.8 km/h 67 % 0 mm 0 W/m2
02:25 13.4 °C 7.6 °C 1009.7 hPa SW 22.5 km/h 43.5 km/h 68 % 0 mm 0 W/m2
02:30 13.4 °C 7.6 °C 1010 hPa SW 25.7 km/h 43.5 km/h 68 % 0 mm 0 W/m2
02:35 13.3 °C 7.7 °C 1010 hPa SW 27.4 km/h 48.3 km/h 69 % 0 mm 0 W/m2
02:40 13.3 °C 7.7 °C 1010 hPa SW 27.4 km/h 48.3 km/h 69 % 0 mm 0 W/m2
02:45 13.3 °C 7.7 °C 1010 hPa SW 24.1 km/h 53.1 km/h 69 % 0 mm 0 W/m2
02:50 13.2 °C 7.8 °C 1010 hPa SW 25.7 km/h 53.1 km/h 70 % 0 mm 0 W/m2
02:55 13.2 °C 7.8 °C 1010 hPa SW 25.7 km/h 41.8 km/h 70 % 0 mm 0 W/m2
02:56 13.2 °C 7.8 °C 1010 hPa SW 24.1 km/h 41.8 km/h 70 % 0 mm 0 W/m2
03:01 13.1 °C 7.7 °C 1010 hPa SW 20.9 km/h 40.2 km/h 70 % 0 mm 0 W/m2
03:06 13.1 °C 7.7 °C 1010 hPa WSW 19.3 km/h 38.6 km/h 70 % 0 mm 0 W/m2
03:11 13.1 °C 7.7 °C 1010 hPa WSW 20.9 km/h 46.7 km/h 70 % 0 mm 0 W/m2
03:16 13.1 °C 7.7 °C 1010 hPa SW 22.5 km/h 46.7 km/h 70 % 0 mm 0 W/m2
03:21 13.2 °C 7.8 °C 1010 hPa SW 22.5 km/h 40.2 km/h 70 % 0 mm 0 W/m2
03:26 13.2 °C 7.8 °C 1010.4 hPa SW 20.9 km/h 38.6 km/h 70 % 0 mm 0 W/m2
03:31 13.2 °C 7.8 °C 1010.4 hPa SW 20.9 km/h 38.6 km/h 70 % 0 mm 0 W/m2
03:36 13.1 °C 7.7 °C 1010.4 hPa SW 19.3 km/h 37 km/h 70 % 0 mm 0 W/m2
03:41 13.1 °C 7.9 °C 1010.4 hPa SW 17.7 km/h 37 km/h 71 % 0 mm 0 W/m2
03:46 13.1 °C 7.7 °C 1010.4 hPa SW 19.3 km/h 38.6 km/h 70 % 0 mm 0 W/m2
03:51 13.1 °C 7.7 °C 1010.4 hPa SW 19.3 km/h 38.6 km/h 70 % 0 mm 0 W/m2
03:56 13.1 °C 7.7 °C 1010.7 hPa SW 16.1 km/h 33.8 km/h 70 % 0 mm 0 W/m2
04:01 13.1 °C 7.7 °C 1010.7 hPa SW 17.7 km/h 38.6 km/h 70 % 0 mm 0 W/m2
04:06 13.1 °C 7.7 °C 1010.7 hPa SW 19.3 km/h 38.6 km/h 70 % 0 mm 0 W/m2
04:13 13.1 °C 7.7 °C 1011.1 hPa SW 17.7 km/h 37 km/h 70 % 0 mm 0 W/m2
04:19 13.1 °C 7.7 °C 1011.1 hPa SW 16.1 km/h 33.8 km/h 70 % 0 mm 0 W/m2
04:21 13.1 °C 7.7 °C 1011.1 hPa SW 16.1 km/h 29 km/h 70 % 0 mm 0 W/m2
04:26 13.1 °C 7.9 °C 1011.1 hPa SW 14.5 km/h 29 km/h 71 % 0 mm 0 W/m2
04:27 13.1 °C 7.9 °C 1011.1 hPa SW 14.5 km/h 29 km/h 71 % 0 mm 0 W/m2
04:29 13 °C 7.9 °C 1011.1 hPa SW 14.5 km/h 29 km/h 71 % 0 mm 0 W/m2
04:33 13 °C 7.9 °C 1011.1 hPa SW 12.9 km/h 24.1 km/h 71 % 0 mm 0 W/m2
04:38 13 °C 7.7 °C 1011.1 hPa SW 12.9 km/h 24.1 km/h 70 % 0 mm 0 W/m2
04:43 13 °C 7.9 °C 1011.1 hPa SW 12.9 km/h 25.7 km/h 71 % 0 mm 0 W/m2
04:48 13 °C 7.9 °C 1011.1 hPa SW 14.5 km/h 25.7 km/h 71 % 0 mm 0 W/m2
04:53 12.9 °C 7.8 °C 1011.1 hPa SW 12.9 km/h 22.5 km/h 71 % 0 mm 0 W/m2
04:58 12.9 °C 7.8 °C 1011.4 hPa SW 12.9 km/h 24.1 km/h 71 % 0 mm 0 W/m2
05:03 12.9 °C 7.8 °C 1011.4 hPa SW 11.3 km/h 25.7 km/h 71 % 0 mm 0 W/m2
05:08 12.9 °C 7.8 °C 1011.4 hPa WSW 14.5 km/h 25.7 km/h 71 % 0 mm 0 W/m2
05:13 12.9 °C 7.8 °C 1011.4 hPa WSW 17.7 km/h 37 km/h 71 % 0 mm 0 W/m2
05:18 12.9 °C 7.8 °C 1011.4 hPa SW 14.5 km/h 37 km/h 71 % 0 mm 0 W/m2
05:23 12.9 °C 7.8 °C 1011.4 hPa SW 11.3 km/h 24.1 km/h 71 % 0 mm 0 W/m2
05:28 12.9 °C 7.8 °C 1011.4 hPa WSW 12.9 km/h 37 km/h 71 % 0 mm 0 W/m2
05:33 12.9 °C 7.8 °C 1011.4 hPa WSW 16.1 km/h 37 km/h 71 % 0 mm 0 W/m2
05:38 12.8 °C 7.9 °C 1011.4 hPa WSW 16.1 km/h 32.2 km/h 72 % 0 mm 0 W/m2
05:43 12.8 °C 7.9 °C 1011.7 hPa WSW 17.7 km/h 32.2 km/h 72 % 0 mm 0 W/m2
05:48 12.8 °C 7.9 °C 1011.7 hPa WSW 16.1 km/h 30.6 km/h 72 % 0 mm 0 W/m2
05:53 12.8 °C 7.7 °C 1011.7 hPa SW 17.7 km/h 35.4 km/h 71 % 0 mm 0 W/m2
05:59 12.8 °C 7.4 °C 1011.7 hPa WSW 19.3 km/h 38.6 km/h 70 % 0 mm 0 W/m2
06:04 12.9 °C 7.6 °C 1011.7 hPa WSW 19.3 km/h 38.6 km/h 70 % 0 mm 0 W/m2
06:09 12.9 °C 7.6 °C 1011.7 hPa WSW 19.3 km/h 38.6 km/h 70 % 0 mm 0 W/m2
06:14 12.8 °C 7.4 °C 1012.1 hPa WSW 20.9 km/h 38.6 km/h 70 % 0 mm 0 W/m2
06:19 12.8 °C 7.7 °C 1011.7 hPa WSW 19.3 km/h 33.8 km/h 71 % 0 mm 0 W/m2
06:24 12.7 °C 7.8 °C 1011.7 hPa SW 17.7 km/h 32.2 km/h 72 % 0 mm 0 W/m2
06:29 12.6 °C 7.7 °C 1012.1 hPa WSW 19.3 km/h 37 km/h 72 % 0 mm 0 W/m2
06:34 12.7 °C 7.6 °C 1012.1 hPa WSW 22.5 km/h 37 km/h 71 % 0 mm 0 W/m2
06:39 12.7 °C 7.6 °C 1012.1 hPa WSW 25.7 km/h 40.2 km/h 71 % 0 mm 0 W/m2
06:44 12.7 °C 7.6 °C 1011.7 hPa WSW 24.1 km/h 40.2 km/h 71 % 0 mm 0 W/m2
06:49 12.6 °C 7.5 °C 1012.1 hPa WSW 22.5 km/h 37 km/h 71 % 0 mm 0 W/m2
06:54 12.5 °C 7.4 °C 1011.7 hPa WSW 20.9 km/h 37 km/h 71 % 0 mm 0 W/m2
06:59 12.4 °C 7.3 °C 1011.7 hPa WSW 20.9 km/h 37 km/h 71 % 0 mm 0 W/m2
07:04 12.4 °C 7.3 °C 1012.1 hPa WSW 20.9 km/h 37 km/h 71 % 0 mm 0 W/m2
07:09 12.3 °C 7.4 °C 1012.1 hPa WSW 20.9 km/h 37 km/h 72 % 0 mm 0 W/m2
07:14 12.3 °C 7.4 °C 1012.1 hPa WSW 24.1 km/h 43.5 km/h 72 % 0 mm 0 W/m2
07:19 12.3 °C 7.6 °C 1012.1 hPa WSW 24.1 km/h 43.5 km/h 73 % 0 mm 0 W/m2
07:24 12.2 °C 7.7 °C 1012.1 hPa WSW 20.9 km/h 37 km/h 74 % 0 mm 0 W/m2
07:29 12.1 °C 7.6 °C 1012.4 hPa WSW 20.9 km/h 37 km/h 74 % 0 mm 0 W/m2
07:34 12 °C 7.7 °C 1012.4 hPa WSW 17.7 km/h 30.6 km/h 75 % 0 mm 5 W/m2
07:39 11.9 °C 7.6 °C 1012.8 hPa WSW 16.1 km/h 30.6 km/h 75 % 0 mm 7 W/m2
07:44 11.8 °C 7.7 °C 1012.4 hPa WSW 17.7 km/h 32.2 km/h 76 % 0 mm 9 W/m2
07:49 11.8 °C 7.7 °C 1012.4 hPa WSW 17.7 km/h 32.2 km/h 76 % 0 mm 14 W/m2
07:54 11.8 °C 7.7 °C 1012.4 hPa WSW 17.7 km/h 32.2 km/h 76 % 0 mm 18 W/m2
07:59 11.8 °C 7.5 °C 1012.4 hPa WSW 20.9 km/h 35.4 km/h 75 % 0 mm 25 W/m2
08:04 11.9 °C 7.6 °C 1012.8 hPa WSW 22.5 km/h 40.2 km/h 75 % 0 mm 35 W/m2
08:09 11.9 °C 7.6 °C 1012.8 hPa WSW 20.9 km/h 40.2 km/h 75 % 0 mm 51 W/m2
08:14 11.9 °C 7.8 °C 1013.1 hPa WSW 20.9 km/h 33.8 km/h 76 % 0 mm 62 W/m2
08:19 11.9 °C 7.8 °C 1013.1 hPa WSW 19.3 km/h 33.8 km/h 76 % 0 mm 72 W/m2
08:24 12 °C 7.7 °C 1013.1 hPa WSW 19.3 km/h 38.6 km/h 75 % 0 mm 84 W/m2
08:30 12 °C 7.5 °C 1013.1 hPa WSW 20.9 km/h 41.8 km/h 74 % 0 mm 90 W/m2
08:35 12.1 °C 7.6 °C 1013.1 hPa WSW 22.5 km/h 41.8 km/h 74 % 0 mm 109 W/m2
08:40 12.2 °C 7.5 °C 1013.1 hPa WSW 24.1 km/h 41.8 km/h 73 % 0 mm 118 W/m2
08:45 12.2 °C 7.5 °C 1013.1 hPa WSW 20.9 km/h 37 km/h 73 % 0 mm 132 W/m2
08:50 12.3 °C 7.6 °C 1013.1 hPa WSW 22.5 km/h 40.2 km/h 73 % 0 mm 148 W/m2
08:55 12.3 °C 7.4 °C 1013.1 hPa WSW 27.4 km/h 53.1 km/h 72 % 0 mm 167 W/m2
09:00 12.4 °C 7.5 °C 1013.1 hPa WSW 27.4 km/h 53.1 km/h 72 % 0 mm 174 W/m2
09:10 12.6 °C 7.7 °C 1013.1 hPa WSW 29 km/h 49.9 km/h 72 % 0 mm 190 W/m2
09:15 12.6 °C 7.7 °C 1013.1 hPa WSW 29 km/h 51.5 km/h 72 % 0 mm 204 W/m2
09:20 12.7 °C 7.6 °C 1013.1 hPa WSW 32.2 km/h 51.5 km/h 71 % 0 mm 202 W/m2
09:25 12.8 °C 7.9 °C 1013.4 hPa WSW 30.6 km/h 64.4 km/h 72 % 0 mm 202 W/m2
09:30 12.9 °C 7.8 °C 1013.1 hPa WSW 29 km/h 64.4 km/h 71 % 0 mm 237 W/m2
09:35 12.9 °C 7.9 °C 1013.1 hPa WSW 27.4 km/h 48.3 km/h 72 % 0 mm 246 W/m2
09:40 13 °C 7.9 °C 1013.4 hPa WSW 27.4 km/h 56.3 km/h 71 % 0 mm 258 W/m2
09:45 13 °C 7.9 °C 1013.4 hPa WSW 30.6 km/h 56.3 km/h 71 % 0 mm 269 W/m2
09:50 13.1 °C 7.9 °C 1013.4 hPa WSW 30.6 km/h 49.9 km/h 71 % 0 mm 274 W/m2
09:55 13.1 °C 7.9 °C 1013.4 hPa WSW 29 km/h 48.3 km/h 71 % 0 mm 285 W/m2
10:00 13.2 °C 8.1 °C 1013.4 hPa WSW 29 km/h 48.3 km/h 71 % 0 mm 301 W/m2
10:05 13.2 °C 8.1 °C 1013.4 hPa WSW 25.7 km/h 48.3 km/h 71 % 0 mm 313 W/m2
10:10 13.3 °C 7.9 °C 1013.4 hPa WSW 27.4 km/h 48.3 km/h 70 % 0 mm 325 W/m2
10:15 13.3 °C 7.9 °C 1013.4 hPa WSW 30.6 km/h 48.3 km/h 70 % 0 mm 332 W/m2
10:20 13.4 °C 8.1 °C 1013.8 hPa WSW 27.4 km/h 48.3 km/h 70 % 0 mm 345 W/m2
10:25 13.5 °C 7.9 °C 1013.4 hPa WSW 25.7 km/h 46.7 km/h 69 % 0 mm 360 W/m2
10:30 13.6 °C 8 °C 1013.8 hPa WSW 29 km/h 46.7 km/h 69 % 0 mm 367 W/m2
10:35 13.6 °C 8 °C 1013.8 hPa WSW 30.6 km/h 51.5 km/h 69 % 0 mm 374 W/m2
10:40 13.6 °C 7.8 °C 1013.8 hPa WSW 30.6 km/h 51.5 km/h 68 % 0 mm 397 W/m2
10:45 13.7 °C 8.1 °C 1013.8 hPa WSW 29 km/h 49.9 km/h 69 % 0 mm 418 W/m2
10:50 13.7 °C 8.1 °C 1013.8 hPa WSW 27.4 km/h 46.7 km/h 69 % 0 mm 424 W/m2
10:55 13.8 °C 7.8 °C 1013.8 hPa WSW 30.6 km/h 49.9 km/h 67 % 0 mm 355 W/m2
11:00 13.9 °C 8.1 °C 1013.8 hPa WSW 29 km/h 49.9 km/h 68 % 0 mm 473 W/m2
11:05 14.2 °C 8.2 °C 1014.1 hPa WSW 25.7 km/h 54.7 km/h 67 % 0 mm 446 W/m2
11:10 13.9 °C 7.7 °C 1013.8 hPa WSW 29 km/h 54.7 km/h 66 % 0 mm 439 W/m2
11:15 13.9 °C 7.4 °C 1014.1 hPa WSW 30.6 km/h 49.9 km/h 65 % 0 mm 454 W/m2
11:20 13.9 °C 7.2 °C 1014.1 hPa WSW 30.6 km/h 54.7 km/h 64 % 0 mm 455 W/m2
11:25 14 °C 7.5 °C 1014.1 hPa WSW 30.6 km/h 54.7 km/h 65 % 0 mm 483 W/m2
11:31 14.2 °C 7.7 °C 1014.4 hPa WSW 27.4 km/h 48.3 km/h 65 % 0 mm 499 W/m2
11:36 14.2 °C 7.7 °C 1014.4 hPa WSW 25.7 km/h 45.1 km/h 65 % 0 mm 496 W/m2
11:41 14.1 °C 7.6 °C 1014.4 hPa WSW 24.1 km/h 40.2 km/h 65 % 0 mm 135 W/m2
11:46 14.1 °C 7.6 °C 1014.1 hPa WSW 20.9 km/h 38.6 km/h 65 % 0 mm 483 W/m2
11:51 14.1 °C 7.6 °C 1014.4 hPa WSW 24.1 km/h 46.7 km/h 65 % 0 mm 86 W/m2
11:56 13.9 °C 7.4 °C 1014.4 hPa WSW 29 km/h 46.7 km/h 65 % 0 mm 541 W/m2
12:01 13.9 °C 7.4 °C 1014.4 hPa WSW 30.6 km/h 49.9 km/h 65 % 0 mm 457 W/m2
12:06 14.1 °C 7.6 °C 1014.4 hPa WSW 29 km/h 49.9 km/h 65 % 0 mm 207 W/m2
12:11 14 °C 7.3 °C 1014.4 hPa WSW 30.6 km/h 51.5 km/h 64 % 0 mm 93 W/m2
12:16 13.9 °C 7.4 °C 1014.4 hPa WSW 30.6 km/h 51.5 km/h 65 % 0 mm 220 W/m2
12:21 13.9 °C 7.4 °C 1014.8 hPa WSW 29 km/h 51.5 km/h 65 % 0 mm 220 W/m2
12:26 13.8 °C 7.6 °C 1014.8 hPa WSW 27.4 km/h 51.5 km/h 66 % 0 mm 123 W/m2
12:31 13.9 °C 7.7 °C 1014.8 hPa WSW 25.7 km/h 43.5 km/h 66 % 0 mm 427 W/m2
12:36 14.3 °C 7.8 °C 1014.8 hPa West 27.4 km/h 53.1 km/h 65 % 0 mm 656 W/m2
12:41 14.7 °C 7.7 °C 1015.1 hPa WSW 25.7 km/h 53.1 km/h 63 % 0 mm 656 W/m2
12:46 14.6 °C 7.4 °C 1014.8 hPa WSW 24.1 km/h 45.1 km/h 62 % 0 mm 195 W/m2
12:51 14.3 °C 7.3 °C 1014.8 hPa WSW 29 km/h 48.3 km/h 63 % 0 mm 174 W/m2
12:56 14.3 °C 7.6 °C 1014.8 hPa WSW 27.4 km/h 48.3 km/h 64 % 0 mm 545 W/m2
13:01 14.5 °C 7.8 °C 1015.1 hPa WSW 24.1 km/h 45.1 km/h 64 % 0 mm 146 W/m2
13:06 14.5 °C 7.6 °C 1015.1 hPa WSW 24.1 km/h 40.2 km/h 63 % 0 mm 120 W/m2
13:11 14.3 °C 7.3 °C 1015.1 hPa WSW 24.1 km/h 37 km/h 63 % 0 mm 135 W/m2
13:16 14.3 °C 7.6 °C 1015.1 hPa WSW 24.1 km/h 45.1 km/h 64 % 0 mm 577 W/m2
13:21 14.4 °C 7.2 °C 1015.1 hPa WSW 27.4 km/h 48.3 km/h 62 % 0 mm 211 W/m2
13:26 14.4 °C 7.2 °C 1015.1 hPa WSW 30.6 km/h 48.3 km/h 62 % 0 mm 563 W/m2
13:31 14.3 °C 6.9 °C 1014.8 hPa WSW 30.6 km/h 53.1 km/h 61 % 0 mm 125 W/m2
13:36 14.2 °C 6.8 °C 1014.8 hPa WSW 29 km/h 53.1 km/h 61 % 0 mm 114 W/m2
13:41 14.4 °C 7.2 °C 1014.8 hPa WSW 29 km/h 48.3 km/h 62 % 0 mm 499 W/m2
13:46 14.7 °C 7.5 °C 1014.8 hPa WSW 25.7 km/h 41.8 km/h 62 % 0 mm 494 W/m2
13:51 14.9 °C 7.2 °C 1014.8 hPa WSW 24.1 km/h 41.8 km/h 60 % 0 mm 517 W/m2
13:56 14.9 °C 7.2 °C 1014.8 hPa WSW 27.4 km/h 43.5 km/h 60 % 0 mm 167 W/m2
14:01 15 °C 7.6 °C 1014.8 hPa WSW 27.4 km/h 43.5 km/h 61 % 0 mm 527 W/m2
14:06 14.8 °C 7.1 °C 1014.8 hPa WSW 27.4 km/h 43.5 km/h 60 % 0 mm 153 W/m2
14:11 14.5 °C 7.3 °C 1014.8 hPa WSW 25.7 km/h 43.5 km/h 62 % 0 mm 132 W/m2
14:21 14.5 °C 7.6 °C 1014.8 hPa West 20.9 km/h 40.2 km/h 63 % 0 mm 271 W/m2
14:26 14.5 °C 7.3 °C 1014.8 hPa West 22.5 km/h 41.8 km/h 62 % 0 mm 167 W/m2
14:29 14.4 °C 6.9 °C 1014.8 hPa West 24.1 km/h 51.5 km/h 61 % 0 mm 188 W/m2
14:34 14.4 °C 6.9 °C 1014.8 hPa West 27.4 km/h 51.5 km/h 61 % 0 mm 464 W/m2
14:39 14.6 °C 6.9 °C 1014.8 hPa West 29 km/h 43.5 km/h 60 % 0 mm 128 W/m2
14:44 14.4 °C 6.9 °C 1014.8 hPa West 27.4 km/h 43.5 km/h 61 % 0 mm 100 W/m2
14:49 14.6 °C 7.2 °C 1014.8 hPa West 27.4 km/h 48.3 km/h 61 % 0 mm 127 W/m2
14:54 14.6 °C 7.4 °C 1014.8 hPa West 25.7 km/h 48.3 km/h 62 % 0 mm 385 W/m2
14:59 14.8 °C 7.6 °C 1015.1 hPa West 20.9 km/h 41.8 km/h 62 % 0 mm 374 W/m2
15:04 14.9 °C 7.7 °C 1015.1 hPa West 19.3 km/h 37 km/h 62 % 0 mm 369 W/m2
15:09 15.1 °C 7.9 °C 1015.1 hPa West 17.7 km/h 37 km/h 62 % 0 mm 359 W/m2
15:14 15.1 °C 7.9 °C 1015.1 hPa West 17.7 km/h 35.4 km/h 62 % 0 mm 350 W/m2
15:19 15.2 °C 7.7 °C 1015.1 hPa West 16.1 km/h 35.4 km/h 61 % 0 mm 341 W/m2
15:24 15.2 °C 7.2 °C 1015.1 hPa West 17.7 km/h 38.6 km/h 59 % 0 mm 329 W/m2
15:29 15.1 °C 7.4 °C 1015.1 hPa West 20.9 km/h 38.6 km/h 60 % 0 mm 316 W/m2
15:34 15.2 °C 7.5 °C 1014.8 hPa WSW 16.1 km/h 38.6 km/h 60 % 0 mm 285 W/m2
15:39 15.2 °C 7.2 °C 1015.1 hPa WSW 14.5 km/h 32.2 km/h 59 % 0 mm 283 W/m2
15:44 15.3 °C 7.6 °C 1015.1 hPa WSW 12.9 km/h 32.2 km/h 60 % 0 mm 304 W/m2
15:49 15.4 °C 7.4 °C 1015.1 hPa WSW 8 km/h 20.9 km/h 59 % 0 mm 315 W/m2
15:59 15.6 °C 7.1 °C 1015.1 hPa West 14.5 km/h 30.6 km/h 57 % 0 mm 271 W/m2
16:04 15.3 °C 6.3 °C 1015.1 hPa West 19.3 km/h 40.2 km/h 55 % 0 mm 237 W/m2
16:09 15.1 °C 6.4 °C 1015.1 hPa West 19.3 km/h 40.2 km/h 56 % 0 mm 214 W/m2
16:14 14.9 °C 6.4 °C 1015.1 hPa West 17.7 km/h 30.6 km/h 57 % 0 mm 135 W/m2
16:19 14.7 °C 6.5 °C 1015.1 hPa WSW 17.7 km/h 30.6 km/h 58 % 0 mm 149 W/m2
16:24 14.5 °C 6.3 °C 1015.1 hPa West 17.7 km/h 30.6 km/h 58 % 0 mm 139 W/m2
16:29 14.4 °C 6.5 °C 1015.1 hPa West 17.7 km/h 32.2 km/h 59 % 0 mm 142 W/m2
16:34 14.3 °C 6.6 °C 1015.1 hPa WSW 16.1 km/h 32.2 km/h 60 % 0 mm 93 W/m2
16:39 14.2 °C 6.6 °C 1015.1 hPa WSW 16.1 km/h 30.6 km/h 60 % 0 mm 81 W/m2
16:44 14.1 °C 6.2 °C 1015.1 hPa WSW 16.1 km/h 30.6 km/h 59 % 0 mm 70 W/m2
16:49 13.9 °C 6 °C 1015.1 hPa WSW 16.1 km/h 25.7 km/h 59 % 0 mm 67 W/m2
16:54 13.8 °C 5.9 °C 1015.1 hPa WSW 16.1 km/h 24.1 km/h 59 % 0 mm 63 W/m2
16:59 13.8 °C 6.2 °C 1015.1 hPa West 14.5 km/h 22.5 km/h 60 % 0 mm 62 W/m2
17:04 13.7 °C 6.1 °C 1015.1 hPa West 12.9 km/h 24.1 km/h 60 % 0 mm 56 W/m2
17:09 13.6 °C 6 °C 1015.1 hPa West 12.9 km/h 25.7 km/h 60 % 0 mm 47 W/m2
17:14 13.4 °C 5.8 °C 1015.1 hPa West 12.9 km/h 25.7 km/h 60 % 0 mm 46 W/m2
17:19 13.3 °C 5.9 °C 1015.1 hPa West 11.3 km/h 19.3 km/h 61 % 0 mm 40 W/m2
17:24 13.2 °C 5.8 °C 1015.1 hPa West 11.3 km/h 16.1 km/h 61 % 0 mm 33 W/m2
17:29 13.1 °C 5.7 °C 1015.1 hPa West 9.7 km/h 16.1 km/h 61 % 0 mm 28 W/m2
17:34 13 °C 5.9 °C 1015.1 hPa West 9.7 km/h 16.1 km/h 62 % 0 mm 25 W/m2
17:39 12.9 °C 6 °C 1015.1 hPa WNW 8 km/h 14.5 km/h 63 % 0 mm 18 W/m2
17:44 12.8 °C 5.9 °C 1015.5 hPa WNW 3.2 km/h 9.7 km/h 63 % 0 mm 12 W/m2
17:49 12.7 °C 6.1 °C 1015.5 hPa Calm   8 km/h 64 % 0 mm 9 W/m2
17:54 12.5 °C 6.1 °C 1015.5 hPa Calm   6.4 km/h 65 % 0 mm 7 W/m2
17:59 12.3 °C 5.9 °C 1015.5 hPa WNW 1.6 km/h 6.4 km/h 65 % 0 mm 5 W/m2
18:04 12.2 °C 6.1 °C 1015.5 hPa WNW 3.2 km/h 9.7 km/h 66 % 0 mm 0 W/m2
18:09 12.1 °C 5.9 °C 1015.5 hPa WNW 4.8 km/h 9.7 km/h 66 % 0 mm 0 W/m2
18:14 11.9 °C 5.9 °C 1015.5 hPa WNW 3.2 km/h 9.7 km/h 67 % 0 mm 5 W/m2
18:19 11.9 °C 5.9 °C 1015.5 hPa WNW 1.6 km/h 8 km/h 67 % 0 mm 0 W/m2
18:20 11.9 °C 5.9 °C 1015.5 hPa WNW 1.6 km/h 8 km/h 67 % 0 mm 0 W/m2
18:25 11.8 °C 6.1 °C 1015.5 hPa West 3.2 km/h 9.7 km/h 68 % 0 mm 0 W/m2
18:30 11.7 °C 6.2 °C 1015.5 hPa West 6.4 km/h 12.9 km/h 69 % 0 mm 0 W/m2
18:35 11.6 °C 6.3 °C 1015.5 hPa WNW 4.8 km/h 12.9 km/h 70 % 0 mm 0 W/m2
18:40 11.4 °C 6.3 °C 1015.5 hPa West 6.4 km/h 11.3 km/h 71 % 0 mm 0 W/m2
18:45 11.3 °C 6.2 °C 1015.5 hPa West 6.4 km/h 11.3 km/h 71 % 0 mm 0 W/m2
18:50 11.3 °C 6.4 °C 1015.5 hPa West 3.2 km/h 11.3 km/h 72 % 0 mm 0 W/m2
18:55 11.2 °C 6.3 °C 1015.5 hPa WSW 1.6 km/h 9.7 km/h 72 % 0 mm 0 W/m2
19:00 11.1 °C 6.2 °C 1015.5 hPa West 4.8 km/h 12.9 km/h 72 % 0 mm 0 W/m2
19:05 11 °C 6.3 °C 1015.5 hPa WSW 8 km/h 12.9 km/h 73 % 0 mm 0 W/m2
19:10 10.9 °C 6.4 °C 1015.5 hPa WSW 6.4 km/h 12.9 km/h 74 % 0 mm 0 W/m2
19:15 10.9 °C 6.4 °C 1015.5 hPa WSW 3.2 km/h 12.9 km/h 74 % 0 mm 0 W/m2
19:20 10.8 °C 6.3 °C 1015.5 hPa WSW 3.2 km/h 9.7 km/h 74 % 0 mm 0 W/m2
19:25 10.7 °C 6.3 °C 1015.5 hPa West 4.8 km/h 9.7 km/h 74 % 0 mm 0 W/m2
19:30 10.7 °C 6.4 °C 1015.5 hPa West 4.8 km/h 9.7 km/h 75 % 0 mm 0 W/m2
19:35 10.6 °C 6.3 °C 1015.5 hPa West 3.2 km/h 9.7 km/h 75 % 0 mm 0 W/m2
19:40 10.5 °C 6.3 °C 1015.5 hPa WNW 1.6 km/h 9.7 km/h 75 % 0 mm 0 W/m2
19:45 10.4 °C 6.3 °C 1015.5 hPa Calm   6.4 km/h 76 % 0 mm 0 W/m2
19:50 10.4 °C 6.6 °C 1015.1 hPa NW 1.6 km/h 6.4 km/h 77 % 0 mm 0 W/m2
19:56 10.4 °C 6.6 °C 1015.5 hPa Calm   4.8 km/h 77 % 0 mm 0 W/m2
20:01 10.3 °C 6.4 °C 1015.5 hPa Calm   1.6 km/h 77 % 0 mm 0 W/m2
20:06 10.1 °C 6.4 °C 1015.5 hPa Calm   1.6 km/h 78 % 0 mm 0 W/m2
20:11 10.1 °C 6.4 °C 1015.5 hPa NW 1.6 km/h 6.4 km/h 78 % 0 mm 0 W/m2
20:16 10.1 °C 6.4 °C 1015.1 hPa WNW 4.8 km/h 9.7 km/h 78 % 0 mm 0 W/m2
20:21 10.1 °C 6.4 °C 1015.1 hPa West 8 km/h 11.3 km/h 78 % 0 mm 0 W/m2
20:26 10.1 °C 6.4 °C 1015.1 hPa WSW 8 km/h 12.9 km/h 78 % 0 mm 0 W/m2
20:31 10 °C 6.3 °C 1015.1 hPa West 4.8 km/h 12.9 km/h 78 % 0 mm 0 W/m2
20:36 9.9 °C 6.4 °C 1015.5 hPa West 1.6 km/h 6.4 km/h 79 % 0 mm 0 W/m2
20:41 9.8 °C 6.3 °C 1015.1 hPa WNW 1.6 km/h 9.7 km/h 79 % 0 mm 0 W/m2
20:46 9.8 °C 6.3 °C 1015.1 hPa WNW 3.2 km/h 9.7 km/h 79 % 0 mm 0 W/m2
20:51 9.8 °C 6.5 °C 1015.1 hPa WNW 3.2 km/h 8 km/h 80 % 0 mm 0 W/m2
20:56 9.7 °C 6.4 °C 1015.5 hPa WNW 3.2 km/h 8 km/h 80 % 0 mm 0 W/m2
21:01 9.7 °C 6.4 °C 1015.5 hPa NW 3.2 km/h 9.7 km/h 80 % 0 mm 0 W/m2
21:06 9.7 °C 6.4 °C 1015.5 hPa NW 4.8 km/h 9.7 km/h 80 % 0 mm 0 W/m2
21:11 9.8 °C 6.5 °C 1015.5 hPa WNW 4.8 km/h 9.7 km/h 80 % 0 mm 0 W/m2
21:16 9.9 °C 6.6 °C 1015.5 hPa WNW 3.2 km/h 8 km/h 80 % 0 mm 0 W/m2
21:21 9.9 °C 6.6 °C 1015.5 hPa Calm   8 km/h 80 % 0 mm 0 W/m2
21:26 9.8 °C 6.5 °C 1015.5 hPa Calm   3.2 km/h 80 % 0 mm 0 W/m2
21:31 9.7 °C 6.4 °C 1015.5 hPa Calm     80 % 0 mm 0 W/m2
21:36 9.7 °C 6.6 °C 1015.5 hPa West 1.6 km/h 8 km/h 81 % 0 mm 0 W/m2
21:39 9.8 °C 6.7 °C 1015.5 hPa West 3.2 km/h 8 km/h 81 % 0 mm 0 W/m2
21:44 9.8 °C 6.7 °C 1015.1 hPa West 4.8 km/h 8 km/h 81 % 0 mm 0 W/m2
21:49 9.7 °C 6.6 °C 1015.5 hPa WNW 1.6 km/h 8 km/h 81 % 0 mm 0 W/m2
21:54 9.6 °C 6.7 °C 1015.5 hPa NNW 1.6 km/h 4.8 km/h 82 % 0 mm 0 W/m2
21:59 9.6 °C 6.7 °C 1015.5 hPa Calm   3.2 km/h 82 % 0 mm 0 W/m2
22:04 9.6 °C 6.7 °C 1015.8 hPa Calm   6.4 km/h 82 % 0 mm 0 W/m2
22:09 9.6 °C 6.7 °C 1015.8 hPa NNW 1.6 km/h 6.4 km/h 82 % 0 mm 0 W/m2
22:14 9.6 °C 6.7 °C 1015.8 hPa NW 1.6 km/h 6.4 km/h 82 % 0 mm 0 W/m2
22:19 9.6 °C 6.5 °C 1015.8 hPa Calm   6.4 km/h 81 % 0 mm 0 W/m2
22:24 9.6 °C 6.5 °C 1015.8 hPa Calm   8 km/h 81 % 0 mm 0 W/m2
22:29 9.6 °C 6.7 °C 1015.5 hPa WNW 3.2 km/h 8 km/h 82 % 0 mm 0 W/m2
22:34 9.6 °C 6.7 °C 1015.8 hPa WNW 4.8 km/h 8 km/h 82 % 0 mm 0 W/m2
22:39 9.6 °C 6.7 °C 1015.5 hPa West 1.6 km/h 8 km/h 82 % 0 mm 0 W/m2
22:44 9.6 °C 6.7 °C 1015.8 hPa Calm   3.2 km/h 82 % 0 mm 0 W/m2
22:49 9.6 °C 6.7 °C 1015.5 hPa Calm     82 % 0 mm 0 W/m2
22:54 9.6 °C 6.7 °C 1015.8 hPa Calm   1.6 km/h 82 % 0 mm 0 W/m2
22:59 9.6 °C 6.7 °C 1015.8 hPa Calm   4.8 km/h 82 % 0 mm 0 W/m2
23:04 9.6 °C 6.7 °C 1015.5 hPa WNW 3.2 km/h 9.7 km/h 82 % 0 mm 0 W/m2
23:09 9.6 °C 6.7 °C 1015.5 hPa WNW 4.8 km/h 9.7 km/h 82 % 0 mm 0 W/m2
23:14 9.7 °C 6.8 °C 1015.5 hPa WNW 1.6 km/h 8 km/h 82 % 0 mm 0 W/m2
23:19 9.7 °C 6.8 °C 1015.8 hPa Calm   3.2 km/h 82 % 0 mm 0 W/m2
23:24 9.7 °C 6.8 °C 1015.5 hPa Calm     82 % 0 mm 0 W/m2
23:29 9.6 °C 6.7 °C 1015.5 hPa Calm     82 % 0 mm 0 W/m2
23:34 9.6 °C 6.7 °C 1015.5 hPa Calm     82 % 0 mm 0 W/m2
23:39 9.4 °C 6.7 °C 1015.5 hPa Calm     83 % 0 mm 0 W/m2
23:44 9.4 °C 6.7 °C 1015.5 hPa Calm     83 % 0 mm 0 W/m2
23:49 9.3 °C 6.6 °C 1015.5 hPa Calm     83 % 0 mm 0 W/m2
23:54 9.3 °C 6.7 °C 1015.8 hPa Calm     84 % 0 mm 0 W/m2
23:59 9.3 °C 6.7 °C 1015.8 hPa Calm     84 % 0 mm 0 W/m2
Delerius-Weather
Compliments of Weather Underground - 2.25 mb

Data updates at regular intervals.